User: anonymous   Login
Location: Unspecified
(0.0000°N, 0.0000°E)
Time: 07:53:48
(UTC+00:00)
Language:

Cosmos 1574 - Orbit

View from above orbital plane
View from above orbital plane
View from above satellite
View from above satellite

Ground track
Ground track

The orbit data is extracted from the following two-line orbital elements,

1 15055U 84062A   19082.95412451 +.00000015 +00000-0 +15786-6 0  9996
2 15055 082.9569 229.4731 0026747 214.5495 261.4147 13.74308611742609
Epoch (UTC): 23 March 2019 22:53:56
Eccentricity: 0.0026747
inclination: 82.9569°
perigee height: 964 km
apogee height: 1004 km
right ascension of ascending node: 229.4731°
argument of perigee: 214.5495°
revolutions per day: 13.74308611
mean anomaly at epoch: 261.4147°
orbit number at epoch: 74260

The dashed part of the orbit path shows where the satellite is in the earth's shadow,  

DLR